Tracking 32964 objects as of 20-Jan-2026
HD Live streaming from Space Station
objects crossing your sky now

PICOSAT 6

Track PICOSAT 6 now!
10-day predictions
PICOSAT 6 is classified as:


NORAD ID: 26094
Int'l Code: 2000-004M
Perigee: 720.4 km
Apogee: 764.7 km
Inclination: 100.2 °
Period: 99.5 minutes
Semi major axis: 7113 km
RCS: 0.0137 m2 (small)
Launch date: January 27, 2000
Source: United States (US)
Launch site: AIR FORCE WESTERN TEST RANGE (AFWTR)
Your satellite tracking list
Your tracking list is empty




NASA's NSSDC Master Catalog

Two Line Element Set (TLE):
1 26094U 00004M   26020.18062602  .00001346  00000-0  38460-3 0  9998
2 26094 100.2124   6.8601 0031166 249.2827 110.5017 14.47020770363824
Source of the keplerian elements: AFSPC